User: anonymous   Login
Location: Unspecified
(0.0000°N, 0.0000°E)
Time: 15:32:47
(UTC+02:00)
Language:

GPS 2-05 Rocket1 - Orbit

View from above orbital plane
View from above orbital plane
View from above satellite
View from above satellite

Ground track
Ground track

The orbit data is extracted from the following two-line orbital elements,

1 20362U 89097B   17117.70721389 +.00014087 +00000-0 +21383-3 0  9990
2 20362 035.6073 203.2134 0055912 208.1967 285.8379 15.51899447492425
Epoch (UTC): 27 April 2017 16:58:23
Eccentricity: 0.0055912
inclination: 35.6073°
perigee height: 373 km
apogee height: 449 km
right ascension of ascending node: 203.2134°
argument of perigee: 208.1967°
revolutions per day: 15.51899447
mean anomaly at epoch: 285.8379°
orbit number at epoch: 49242

The dashed part of the orbit path shows where the satellite is in the earth's shadow,  

DLR